Location: Rometta
(44.2000°N, 10.0500°E)
Time: 22:43:51
(UTC+00:00)

Cosmos 1939 Rocket - Pass Details

Date: 20 January 2021
Orbit: 531 x 585 km, 97.4° (Epoch: 03 March)

Event Time Altitude Azimuth Distance (km) Brightness Sun altitude
Rises 17:38:18 0° 179° (S) 2,794 6.6 -15.0°
Reaches altitude 10° 17:40:30 10° 185° (S) 1,896 5.8 -15.4°
Maximum altitude 17:44:30 49° 261° (W) 751 3.9 -16.1°
Drops below altitude 10° 17:48:30 10° 337° (NNW) 1,893 5.7 -16.8°
Sets 17:50:42 0° 343° (NNW) 2,788 6.5 -17.2°
